Content
SEND FEEDBACK

Daily
Averages
Monthly
Summary
Germany

NORDHOLZ, GERMANY


Home > Europe > Germany
Elevation: 102 feet     Latitude: 53 46N     Longitude: 008 40E

WEATHER
 
SELECT A DAY
Number of Records: 47,968;   Date Range: 2/20/97 - 8/27/14
 
SHARE

PRINT THIS DATA

[ ← Previous Day ]
WEATHER ALMANAC - FEBRUARY 13, 2013
[ Next Day → ]
[ °C ]   °F
Weather ElementAverageHighLow
Temperature29.8 °F33.8 °F (1:20 pm)26.6 °F (1:20 am)
Dewpoint23.6 °F26.6 °F (3:20 am)21.2 °F (11:20 am)
Humidity78.6 %93 % (1:20 am)60 % (1:20 pm)
Barometer30.26 in30.33 in (6:20 pm)30.12 in (1:20 am)
Wind Speed3.4 mph6.9 mph (4:20 am)
Weather ElementAverage
Visibility6.2 mi
Wind DirectionESE (120 °)

Weather ElementTotal
Precipitation---
Heating Degree Days34.8 (Base 65)
Averaged from 24 records on February 13, 2013
WEATHER CONDITIONS BREAKOUT
WIND DIRECTION BREAKOUT
WEATHER BY HOUR - FEBRUARY 13, 2013
[ °C ]   °F
Local TimeTemperatureDewpointHumidityBarometerVisibilityWind DirectionWind SpeedGust SpeedPrecipitationEventsConditions
1:20 AM26.6 °F24.8 °F93 %30.12 in6.2 miNE (40°)4.6 mphMostly Cloudy
2:20 AM28.4 °F24.8 °F86 %30.15 in6.2 miNorth (360°)2.3 mphMostly Cloudy
3:20 AM28.4 °F26.6 °F93 %30.15 in6.2 miNE (40°)4.6 mphMostly Cloudy
4:20 AM28.4 °F26.6 °F93 %30.15 in6.2 miNE (40°)6.9 mphMostly Cloudy
5:20 AM28.4 °F24.8 °F86 %30.18 in6.2 miNE (50°)3.5 mphMostly Cloudy
6:20 AM28.4 °F24.8 °F86 %30.18 in6.2 miENE (60°)2.3 mphOvercast
7:20 AM28.4 °F24.8 °F86 %30.21 in6.2 miNE (50°)2.3 mphOvercast
8:20 AM28.4 °F24.8 °F86 %30.24 in6.2 miCalmMostly Cloudy
9:20 AM28.4 °F26.6 °F93 %30.24 in6.2 miESE (120°)1.2 mphMostly Cloudy
10:20 AM32.0 °F23.0 °F69 %30.27 in6.2 miVariable1.2 mphMostly Cloudy
11:20 AM32.0 °F21.2 °F64 %30.27 in6.2 miSSW (200°)3.5 mphScattered Clouds
12:20 PM32.0 °F21.2 °F64 %30.27 in6.2 miSW (220°)4.6 mphScattered Clouds
1:20 PM33.8 °F21.2 °F60 %30.30 in6.2 miWest (270°)3.5 mphPartly Cloudy
2:02 PM33.8 °F21.2 °F60 %30.30 in6.2 miWest (260°)4.6 mphMostly Cloudy
2:20 PM33.8 °F21.2 °F60 %30.30 in6.2 miSW (230°)3.5 mphMostly Cloudy
3:20 PM32.0 °F21.2 °F64 %30.30 in6.2 miVariable1.2 mphMostly Cloudy
4:20 PM32.0 °F24.8 °F75 %30.30 in6.2 miENE (60°)3.5 mphMostly Cloudy
5:20 PM32.0 °F24.8 °F75 %30.30 in6.2 miVariable1.2 mphMostly Cloudy
6:20 PM30.2 °F23.0 °F75 %30.33 in6.2 miSSE (150°)3.5 mphMostly Cloudy
7:20 PM28.4 °F23.0 °F80 %30.33 in6.2 miSSE (150°)4.6 mphPartly Cloudy
8:20 PM28.4 °F23.0 °F80 %30.33 in6.2 miSSE (150°)5.8 mphPartly Cloudy
9:20 PM26.6 °F23.0 °F86 %30.33 in6.2 miSE (140°)4.6 mphScattered Clouds
10:20 PM26.6 °F23.0 °F86 %30.33 in6.2 miSSE (150°)3.5 mphPartly Cloudy
11:20 PM26.6 °F23.0 °F86 %30.33 in6.2 miSE (140°)5.8 mphPartly Cloudy
Hourly data recorded from ETMN, located miles away from Nordholz, Germany







STORIES FROM OUR PARTNERS